^^
Datos históricos de la estación: Murcia-Puente Tocinos
Diario Informe para Octubre 26, 2019 Unidades:  Métrico    Ingés   Ambas
Diario Semanal Mensual Anual
  Máxima: Mínima: Promedio:
Temperatura: 24.6 °C 12.7 °C 17.7 °C
Punto de rocio: 15.9 °C 10.5 °C 12.9 °C
Humedad: 89.9% 52.6% 75%
Velocidad viento: 14.8km/h 0km/h 6.6km/h
Racha viento: 26.2km/h - -
Viento- - SE
Presión: 1020.7 hPa 1017.5 hPa -
Precipitación: 0.0 mm    
 
 
Tabla de datos para Octubre 26, 2019
Hora Temperatura Punto de rocio Presión Viento Velocidad viento Racha viento Humedad Intensidad lluvia(por hora) Nubes
00:04 16.8 °C 11.3 °C 1020.4 hPa SO 6.5 km/h 11.3 km/h 70% 0.0 mm
00:09 16.8 °C 11.4 °C 1020.4 hPa SO 6.5 km/h 9.7 km/h 70.9% 0.0 mm
00:14 16.7 °C 11.4 °C 1020.4 hPa SO 5.4 km/h 9.7 km/h 71% 0.0 mm
00:19 16.6 °C 11.3 °C 1020.4 hPa SO 5 km/h 11.1 km/h 71% 0.0 mm
00:24 16.6 °C 11.3 °C 1020.4 hPa SO 6 km/h 13.7 km/h 71% 0.0 mm
00:29 16.6 °C 11.3 °C 1020.4 hPa SSO 6.5 km/h 14.5 km/h 71% 0.0 mm
00:34 16.6 °C 11.3 °C 1020.4 hPa Sur 5.4 km/h 9.7 km/h 71% 0.0 mm
00:39 16.5 °C 11.4 °C 1020.5 hPa Sur 5 km/h 11.1 km/h 71.9% 0.0 mm
00:44 16.3 °C 11.3 °C 1020.5 hPa Sur 6.4 km/h 11.9 km/h 72.5% 0.0 mm
00:49 16.1 °C 11.3 °C 1020.5 hPa SSO 6.9 km/h 11.3 km/h 73.3% 0.0 mm
00:54 16 °C 11.4 °C 1020.5 hPa Sur 7.4 km/h 11.1 km/h 74% 0.0 mm
00:59 15.9 °C 11.3 °C 1020.4 hPa Sur 7.6 km/h 11.3 km/h 74.4% 0.0 mm
01:04 15.8 °C 11.4 °C 1020.4 hPa Sur 7.1 km/h 10 km/h 75% 0.0 mm
01:09 15.7 °C 11.4 °C 1020.4 hPa SSO 6.9 km/h 9.7 km/h 75.7% 0.0 mm
01:14 15.6 °C 11.4 °C 1020.4 hPa SSO 6.9 km/h 11.1 km/h 76% 0.0 mm
01:19 15.6 °C 11.4 °C 1020.4 hPa SSO 6.9 km/h 13.7 km/h 76% 0.0 mm
01:24 15.4 °C 11.4 °C 1020.4 hPa SSO 7.4 km/h 14.5 km/h 77% 0.0 mm
01:29 15.4 °C 11.4 °C 1020.3 hPa SSO 7.6 km/h 14.5 km/h 77% 0.0 mm
01:34 15.3 °C 11.4 °C 1020.3 hPa Sur 8.4 km/h 14.5 km/h 77.4% 0.0 mm
01:39 15.3 °C 11.5 °C 1020.4 hPa Sur 8.7 km/h 11.3 km/h 78% 0.0 mm
01:44 15.2 °C 11.4 °C 1020.4 hPa SSO 7.4 km/h 11.9 km/h 78% 0.0 mm
01:49 15.2 °C 11.5 °C 1020.4 hPa SSO 6.9 km/h 11.3 km/h 79% 0.0 mm
01:54 15.2 °C 11.5 °C 1020.4 hPa Sur 7.4 km/h 11.9 km/h 79% 0.0 mm
01:59 15.2 °C 11.5 °C 1020.3 hPa Sur 7.6 km/h 11.3 km/h 79% 0.0 mm
02:04 15.1 °C 11.5 °C 1020.3 hPa Sur 7.1 km/h 11.3 km/h 79% 0.0 mm
02:09 15.1 °C 11.5 °C 1020.3 hPa SSO 6.9 km/h 11.3 km/h 79% 0.0 mm
02:14 15.1 °C 11.5 °C 1020.2 hPa SSO 6.9 km/h 11.3 km/h 79.4% 0.0 mm
02:19 15 °C 11.6 °C 1020.2 hPa SSO 6.9 km/h 13 km/h 80% 0.0 mm
02:24 15 °C 11.6 °C 1020.2 hPa SSO 8 km/h 12.9 km/h 80% 0.0 mm
02:29 15 °C 11.6 °C 1020.0 hPa SSO 8.4 km/h 11.1 km/h 80% 0.0 mm
02:34 15 °C 11.4 °C 1020.0 hPa SSO 7.3 km/h 11.3 km/h 79.1% 0.0 mm
02:39 15.1 °C 11.5 °C 1020.0 hPa SSO 6.9 km/h 11.9 km/h 79% 0.0 mm
02:44 15.1 °C 11.5 °C 1020.0 hPa SO 6.9 km/h 11.9 km/h 79% 0.0 mm
02:49 15.2 °C 11.5 °C 1020.0 hPa SO 6.9 km/h 11.3 km/h 79% 0.0 mm
02:54 15.2 °C 11.6 °C 1020.0 hPa SO 6.1 km/h 8.4 km/h 79% 0.0 mm
02:59 15.2 °C 11.6 °C 1019.8 hPa SO 5.8 km/h 8 km/h 79% 0.0 mm
03:04 15.2 °C 11.6 °C 1019.8 hPa SO 4.9 km/h 8 km/h 79% 0.0 mm
03:09 15.2 °C 11.5 °C 1019.8 hPa SO 4.7 km/h 11.1 km/h 79% 0.0 mm
03:14 15.1 °C 11.6 °C 1019.8 hPa OSO 6 km/h 11.3 km/h 79.9% 0.0 mm
03:19 15 °C 11.6 °C 1019.8 hPa SO 6.5 km/h 11.3 km/h 80% 0.0 mm
03:24 14.9 °C 11.6 °C 1019.8 hPa SO 6 km/h 10 km/h 80.7% 0.0 mm
03:29 14.8 °C 11.6 °C 1019.8 hPa SO 5.8 km/h 11.1 km/h 81% 0.0 mm
03:34 14.8 °C 11.6 °C 1019.8 hPa SO 6.6 km/h 11.3 km/h 81% 0.0 mm
03:39 14.8 °C 11.6 °C 1019.8 hPa OSO 6.9 km/h 10 km/h 81.4% 0.0 mm
03:44 14.8 °C 11.7 °C 1019.7 hPa SO 6.1 km/h 9.7 km/h 82% 0.0 mm
03:49 14.7 °C 11.7 °C 1019.7 hPa SO 5.8 km/h 9.7 km/h 82% 0.0 mm
03:54 14.7 °C 11.6 °C 1019.7 hPa SO 4.4 km/h 8.4 km/h 82% 0.0 mm
03:59 14.6 °C 11.6 °C 1019.5 hPa SO 3.9 km/h 8 km/h 82% 0.0 mm
04:04 14.6 °C 11.6 °C 1019.5 hPa SO 4.7 km/h 10 km/h 82% 0.0 mm
04:09 14.6 °C 11.6 °C 1019.5 hPa OSO 5 km/h 9.7 km/h 82% 0.0 mm
04:14 14.5 °C 11.5 °C 1019.4 hPa SO 5 km/h 8 km/h 82% 0.0 mm
04:19 14.5 °C 11.4 °C 1019.4 hPa SO 5 km/h 8.4 km/h 82% 0.0 mm
04:24 14.5 °C 11.5 °C 1019.4 hPa SO 5 km/h 10 km/h 82.4% 0.0 mm
04:29 14.5 °C 11.5 °C 1019.3 hPa SO 5 km/h 9.7 km/h 82.4% 0.0 mm
04:34 14.5 °C 11.4 °C 1019.3 hPa SO 5 km/h 8 km/h 82% 0.0 mm
04:39 14.5 °C 11.4 °C 1019.3 hPa SO 5 km/h 8.4 km/h 82% 0.0 mm
04:44 14.4 °C 11.4 °C 1019.3 hPa SSO 4.7 km/h 10 km/h 82% 0.0 mm
04:49 14.4 °C 11.4 °C 1019.3 hPa SO 4.6 km/h 9.7 km/h 82% 0.0 mm
04:54 14.4 °C 11.4 °C 1019.4 hPa Sur 4.9 km/h 8 km/h 82% 0.0 mm
04:59 14.2 °C 11.2 °C 1019.4 hPa SE 5 km/h 8.4 km/h 81.8% 0.0 mm
05:04 13.9 °C 10.8 °C 1019.4 hPa SE 4.7 km/h 8.7 km/h 81.2% 0.0 mm
05:09 13.5 °C 10.6 °C 1019.4 hPa SSE 4.6 km/h 9.7 km/h 82.4% 0.0 mm
05:14 13.2 °C 10.5 °C 1019.2 hPa Sur 5.5 km/h 9.7 km/h 83.9% 0.0 mm
05:19 12.9 °C 10.5 °C 1019.2 hPa SSE 5.8 km/h 10 km/h 85.2% 0.0 mm
05:24 12.8 °C 10.5 °C 1019.2 hPa SSE 6.3 km/h 10 km/h 86% 0.0 mm
05:29 12.7 °C 10.6 °C 1019.2 hPa SE 6.5 km/h 9.7 km/h 86.7% 0.0 mm
05:34 12.7 °C 10.6 °C 1019.2 hPa SSE 6 km/h 9.7 km/h 87% 0.0 mm
05:39 12.8 °C 10.7 °C 1019.2 hPa SE 5.8 km/h 10 km/h 87% 0.0 mm
05:44 12.7 °C 10.6 °C 1019.2 hPa SSE 5.8 km/h 9.7 km/h 87% 0.0 mm
05:49 12.7 °C 10.6 °C 1019.2 hPa SE 5.8 km/h 9.7 km/h 87% 0.0 mm
05:54 12.7 °C 10.6 °C 1019.2 hPa SSE 5.8 km/h 9.7 km/h 87% 0.0 mm
05:59 12.7 °C 10.6 °C 1019.2 hPa SSE 5.8 km/h 9.7 km/h 87% 0.0 mm
06:04 12.7 °C 10.8 °C 1019.2 hPa SE 5.2 km/h 9.5 km/h 87.9% 0.0 mm
06:09 12.8 °C 10.8 °C 1019.3 hPa SSE 5 km/h 9.7 km/h 87.6% 0.0 mm
06:14 12.7 °C 10.6 °C 1019.3 hPa SSE 5 km/h 9.3 km/h 87% 0.0 mm
06:19 12.8 °C 10.7 °C 1019.3 hPa SSE 5 km/h 9.7 km/h 87.5% 0.0 mm
06:24 12.8 °C 10.8 °C 1019.3 hPa SE 5 km/h 8.7 km/h 87.6% 0.0 mm
06:29 12.8 °C 10.7 °C 1019.3 hPa SSE 5 km/h 9.7 km/h 87% 0.0 mm
06:34 12.8 °C 10.7 °C 1019.3 hPa SSE 6 km/h 9.7 km/h 87% 0.0 mm
06:39 12.8 °C 10.7 °C 1019.3 hPa Sur 6.5 km/h 9.7 km/h 87% 0.0 mm
06:44 12.9 °C 10.8 °C 1019.3 hPa SSO 5.4 km/h 8.4 km/h 87% 0.0 mm
06:49 12.9 °C 10.8 °C 1019.3 hPa SSO 5 km/h 8 km/h 87% 0.0 mm
06:54 13.1 °C 11 °C 1019.3 hPa Sur 5.6 km/h 8 km/h 87% 0.0 mm
06:59 13.1 °C 11 °C 1019.1 hPa SSE 5.8 km/h 9.3 km/h 87% 0.0 mm
07:04 13.2 °C 11 °C 1019.1 hPa Sur 5.8 km/h 9.7 km/h 86.8% 0.0 mm
07:09 13.2 °C 10.9 °C 1019.2 hPa Sur 5.8 km/h 11.1 km/h 86% 0.0 mm
07:14 13.2 °C 10.9 °C 1019.2 hPa Sur 6.3 km/h 11.3 km/h 86% 0.0 mm
07:19 13.1 °C 10.8 °C 1019.2 hPa Sur 6.5 km/h 11.3 km/h 86% 0.0 mm
07:24 13.1 °C 10.8 °C 1019.3 hPa SSE 6.8 km/h 11.3 km/h 86% 0.0 mm
07:29 13 °C 10.7 °C 1019.3 hPa SSE 6.9 km/h 10 km/h 86% 0.0 mm
07:34 12.9 °C 10.7 °C 1019.3 hPa SSE 6.9 km/h 9.7 km/h 86.2% 0.0 mm
07:39 12.9 °C 10.8 °C 1019.4 hPa SSE 6.9 km/h 11.1 km/h 87% 0.0 mm
07:44 12.9 °C 10.8 °C 1019.4 hPa SSE 6.9 km/h 13 km/h 87% 0.0 mm
07:49 12.9 °C 10.7 °C 1019.4 hPa Sur 6.9 km/h 12.9 km/h 86.4% 0.0 mm
07:54 12.9 °C 10.6 °C 1019.5 hPa Sur 7.4 km/h 11.9 km/h 86.1% 0.0 mm
07:59 12.9 °C 10.8 °C 1019.5 hPa Sur 7.6 km/h 11.3 km/h 87% 0.0 mm
08:04 12.9 °C 10.8 °C 1019.5 hPa SSO 7.6 km/h 11.3 km/h 87% 0.0 mm
08:09 12.9 °C 10.8 °C 1019.6 hPa SSO 7.6 km/h 11.3 km/h 87% 0.0 mm
08:14 13 °C 10.9 °C 1019.6 hPa SSO 7.1 km/h 11.3 km/h 87% 0.0 mm
08:19 13 °C 10.9 °C 1019.6 hPa SSO 6.9 km/h 10 km/h 87% 0.0 mm
08:24 13.1 °C 10.9 °C 1019.7 hPa Sur 6.6 km/h 11.1 km/h 86.7% 0.0 mm
08:29 13.1 °C 10.8 °C 1019.7 hPa Sur 6.5 km/h 11.3 km/h 86% 0.0 mm
08:34 13.1 °C 10.8 °C 1019.7 hPa Sur 6.8 km/h 10 km/h 86% 0.0 mm
08:39 13 °C 10.7 °C 1019.8 hPa Sur 6.9 km/h 9.7 km/h 86% 0.0 mm
08:44 12.9 °C 10.6 °C 1019.8 hPa Sur 6.9 km/h 10 km/h 86% 0.0 mm
08:49 12.9 °C 10.7 °C 1019.8 hPa SSO 6.9 km/h 9.7 km/h 86.7% 0.0 mm
08:54 12.9 °C 10.8 °C 1019.8 hPa SO 6.6 km/h 11.1 km/h 87% 0.0 mm
08:59 13.1 °C 10.9 °C 1019.8 hPa SSO 6.5 km/h 11.3 km/h 86.7% 0.0 mm
09:04 13.2 °C 10.9 °C 1019.8 hPa SSO 5.9 km/h 9.7 km/h 86% 0.0 mm
09:09 13.3 °C 10.9 °C 1020.1 hPa SSO 5.8 km/h 9.7 km/h 85.8% 0.0 mm
09:14 13.4 °C 11 °C 1020.1 hPa Sur 5.8 km/h 11.1 km/h 85% 0.0 mm
09:19 13.6 °C 11 °C 1020.1 hPa SSO 5.8 km/h 13.7 km/h 84.4% 0.0 mm
09:24 13.6 °C 10.9 °C 1020.2 hPa SSO 7.1 km/h 14.5 km/h 84% 0.0 mm
09:29 13.7 °C 11 °C 1020.2 hPa SSO 7.6 km/h 13 km/h 84% 0.0 mm
09:34 13.7 °C 11.1 °C 1020.2 hPa Sur 7.1 km/h 12.9 km/h 84% 0.0 mm
09:39 13.8 °C 11 °C 1020.5 hPa SSE 6.9 km/h 9.7 km/h 83.1% 0.0 mm
09:44 14.1 °C 11.2 °C 1020.5 hPa Sur 5.5 km/h 9.7 km/h 83% 0.0 mm
09:49 14.2 °C 11.2 °C 1020.5 hPa SSO 5 km/h 8 km/h 82.3% 0.0 mm
09:54 14.3 °C 11.2 °C 1020.5 hPa SSO 4.7 km/h 9.3 km/h 81.8% 0.0 mm
09:59 14.5 °C 11.3 °C 1020.5 hPa SSE 4.7 km/h 10.3 km/h 81.3% 0.0 mm
10:04 14.7 °C 11.4 °C 1020.5 hPa Sur 5.5 km/h 11.3 km/h 80.4% 0.0 mm
10:09 14.8 °C 11.4 °C 1020.7 hPa SSO 5.8 km/h 11.3 km/h 79.9% 0.0 mm
10:14 14.9 °C 11.4 °C 1020.7 hPa Sur 6.3 km/h 9.7 km/h 79.6% 0.0 mm
10:19 15.1 °C 11.5 °C 1020.7 hPa SSE 6.5 km/h 9.3 km/h 79% 0.0 mm
10:24 15.3 °C 11.6 °C 1020.7 hPa SSE 5.4 km/h 9.7 km/h 78.4% 0.0 mm
10:29 15.6 °C 11.7 °C 1020.6 hPa SSO 5 km/h 8 km/h 77.4% 0.0 mm
10:34 15.8 °C 11.6 °C 1020.6 hPa OSO 4.8 km/h 8 km/h 76.1% 0.0 mm
10:39 15.9 °C 11.5 °C 1020.7 hPa SO 4.7 km/h 9.3 km/h 75.4% 0.0 mm
10:44 16 °C 11.6 °C 1020.7 hPa SO 4.9 km/h 13 km/h 75% 0.0 mm
10:49 16.1 °C 11.7 °C 1020.7 hPa SO 5 km/h 12.9 km/h 75% 0.0 mm
10:54 16.3 °C 11.8 °C 1020.7 hPa SO 6.1 km/h 10.3 km/h 74.9% 0.0 mm
10:59 16.5 °C 11.8 °C 1020.7 hPa SSO 6.5 km/h 11.3 km/h 73.9% 0.0 mm
11:04 16.7 °C 11.8 °C 1020.7 hPa SO 6.5 km/h 11.3 km/h 72.8% 0.0 mm
11:09 16.8 °C 11.8 °C 1020.7 hPa SSO 6.5 km/h 11.3 km/h 72.4% 0.0 mm
11:14 16.9 °C 11.8 °C 1020.6 hPa Sur 6.8 km/h 11.3 km/h 71.8% 0.0 mm
11:19 17.2 °C 11.7 °C 1020.6 hPa Sur 6.9 km/h 11.3 km/h 70.5% 0.0 mm
11:24 17.2 °C 11.7 °C 1020.7 hPa SSO 6.1 km/h 11.3 km/h 70.1% 0.0 mm
11:29 17.3 °C 11.9 °C 1020.7 hPa Sur 5.8 km/h 11.1 km/h 70.5% 0.0 mm
11:34 17.5 °C 12 °C 1020.7 hPa Sur 6.2 km/h 11.3 km/h 70% 0.0 mm
11:39 17.7 °C 12.1 °C 1020.7 hPa Sur 6.5 km/h 13 km/h 69.7% 0.0 mm
11:44 17.8 °C 12.1 °C 1020.6 hPa Sur 6.8 km/h 12.9 km/h 69.1% 0.0 mm
11:49 18.1 °C 12.2 °C 1020.6 hPa Sur 6.9 km/h 11.9 km/h 68.5% 0.0 mm
11:54 18.3 °C 12.1 °C 1020.6 hPa SSO 6.9 km/h 11.9 km/h 67.6% 0.0 mm
11:59 18.4 °C 12.1 °C 1020.5 hPa Sur 6.9 km/h 11.9 km/h 66.6% 0.0 mm
12:04 18.5 °C 12.3 °C 1020.5 hPa Sur 7.4 km/h 11.3 km/h 67% 0.0 mm
12:09 18.7 °C 12.3 °C 1020.5 hPa SSE 7.6 km/h 13 km/h 66.3% 0.0 mm
12:14 18.8 °C 12.1 °C 1020.5 hPa SSE 6.7 km/h 13 km/h 65.2% 0.0 mm
12:19 18.9 °C 12.1 °C 1020.5 hPa SSE 6.5 km/h 13 km/h 65% 0.0 mm
12:24 19 °C 12.3 °C 1020.5 hPa SSE 7.9 km/h 12.9 km/h 65.1% 0.0 mm
12:29 19.2 °C 12.4 °C 1020.5 hPa SSO 8.4 km/h 11.3 km/h 64.5% 0.0 mm
12:34 19.3 °C 12.4 °C 1020.5 hPa Sur 6.9 km/h 9.7 km/h 64.3% 0.0 mm
12:39 19.7 °C 12.6 °C 1020.5 hPa SO 6.5 km/h 8 km/h 63.6% 0.0 mm
12:44 19.9 °C 12.6 °C 1020.4 hPa Sur 4.6 km/h 11.1 km/h 62.5% 0.0 mm
12:49 20.2 °C 12.6 °C 1020.4 hPa Sur 3.9 km/h 11.3 km/h 62% 0.0 mm
12:54 20.3 °C 12.7 °C 1020.4 hPa Sur 4.7 km/h 8.4 km/h 61.3% 0.0 mm
12:59 20.6 °C 12.6 °C 1020.3 hPa SE 5 km/h 8 km/h 60.1% 0.0 mm
13:04 20.8 °C 12.7 °C 1020.3 hPa ESE 4.1 km/h 8 km/h 59.7% 0.0 mm
13:09 21 °C 12.7 °C 1020.3 hPa ENE 3.9 km/h 7.4 km/h 58.8% 0.0 mm
13:14 21.2 °C 12.5 °C 1020.1 hPa NE 3.4 km/h 8 km/h 58% 0.0 mm
13:19 21.3 °C 12.5 °C 1020.1 hPa NE 3.2 km/h 5.8 km/h 57.1% 0.0 mm
13:24 21.5 °C 12.5 °C 1020.1 hPa NNE 2.5 km/h 6.4 km/h 56.4% 0.0 mm
13:29 21.6 °C 12.3 °C 1019.9 hPa NNO 2.2 km/h 8 km/h 55.3% 0.0 mm
13:34 21.7 °C 12.5 °C 1019.9 hPa NNO 2.9 km/h 8 km/h 55.7% 0.0 mm
13:39 21.8 °C 12.8 °C 1019.9 hPa NNO 3.2 km/h 8 km/h 56.5% 0.0 mm
13:44 22 °C 12.8 °C 1019.6 hPa North 2.5 km/h 7.6 km/h 56% 0.0 mm
13:49 22.2 °C 13 °C 1019.6 hPa North 2.2 km/h 8 km/h 56% 0.0 mm
13:54 22.4 °C 13.1 °C 1019.6 hPa North 3.4 km/h 9.5 km/h 56% 0.0 mm
13:59 22.3 °C 13 °C 1019.4 hPa ENE 3.9 km/h 9.7 km/h 55.4% 0.0 mm
14:04 22.3 °C 13.1 °C 1019.4 hPa NNE 4.5 km/h 11.9 km/h 55.8% 0.0 mm
14:09 22.3 °C 13.2 °C 1019.4 hPa NE 4.6 km/h 11.3 km/h 56.4% 0.0 mm
14:14 22.4 °C 13.2 °C 1019.2 hPa NE 5.5 km/h 11.3 km/h 56% 0.0 mm
14:19 22.6 °C 13.4 °C 1019.2 hPa NNE 5.8 km/h 9.7 km/h 56.4% 0.0 mm
14:24 22.7 °C 13.5 °C 1019.2 hPa NE 5.2 km/h 13 km/h 56.2% 0.0 mm
14:29 22.8 °C 13.7 °C 1019.1 hPa NE 5 km/h 12.9 km/h 56.4% 0.0 mm
14:34 22.9 °C 13.7 °C 1019.1 hPa NE 6 km/h 13.7 km/h 56% 0.0 mm
14:39 22.9 °C 13.7 °C 1019.1 hPa NNE 6.5 km/h 15.6 km/h 56% 0.0 mm
14:44 22.9 °C 13.7 °C 1018.8 hPa NNE 8.1 km/h 16.1 km/h 56% 0.0 mm
14:49 23.1 °C 13.7 °C 1018.8 hPa NNE 8.7 km/h 14.5 km/h 55.8% 0.0 mm
14:54 23.2 °C 13.8 °C 1018.8 hPa NE 8.7 km/h 16.7 km/h 55.5% 0.0 mm
14:59 23.3 °C 13.8 °C 1018.7 hPa ENE 8.7 km/h 16.1 km/h 55.3% 0.0 mm
15:04 23.3 °C 13.9 °C 1018.7 hPa NE 7.3 km/h 11.3 km/h 55.5% 0.0 mm
15:09 23.5 °C 14 °C 1018.7 hPa NE 6.9 km/h 11.9 km/h 55.4% 0.0 mm
15:14 23.6 °C 14.1 °C 1018.4 hPa North 6.1 km/h 11.3 km/h 55% 0.0 mm
15:19 23.7 °C 14.1 °C 1018.4 hPa NNE 5.8 km/h 11.3 km/h 55% 0.0 mm
15:24 23.7 °C 14.2 °C 1018.4 hPa NE 5.2 km/h 14.8 km/h 55% 0.0 mm
15:29 23.7 °C 14.2 °C 1018.3 hPa NNO 5 km/h 14.5 km/h 55% 0.0 mm
15:34 23.8 °C 14.3 °C 1018.3 hPa Este 6 km/h 10 km/h 55% 0.0 mm
15:39 24 °C 14.3 °C 1018.3 hPa ENE 6.5 km/h 9.7 km/h 54.7% 0.0 mm
15:44 24.1 °C 14.2 °C 1018.1 hPa NE 5.1 km/h 12.2 km/h 54% 0.0 mm
15:49 24.2 °C 14.2 °C 1018.1 hPa NNE 4.7 km/h 13 km/h 53.6% 0.0 mm
15:54 24.3 °C 14.2 °C 1018.1 hPa NE 5.9 km/h 12.9 km/h 53.3% 0.0 mm
15:59 24.4 °C 14.2 °C 1018.0 hPa ENE 6.5 km/h 13 km/h 53% 0.0 mm
16:04 24.5 °C 14.2 °C 1018.0 hPa NO 6 km/h 12.9 km/h 52.6% 0.0 mm
16:09 24.6 °C 14.4 °C 1018.0 hPa NE 5.8 km/h 17.2 km/h 53% 0.0 mm
16:14 24.5 °C 14.3 °C 1017.9 hPa NE 6.6 km/h 17.7 km/h 53% 0.0 mm
16:19 24.4 °C 14.2 °C 1017.9 hPa NE 6.9 km/h 16.7 km/h 53% 0.0 mm
16:24 24.4 °C 14.4 °C 1017.9 hPa NE 8.8 km/h 14.8 km/h 53.6% 0.0 mm
16:29 24.4 °C 14.5 °C 1017.8 hPa NE 9.5 km/h 16.7 km/h 54% 0.0 mm
16:34 24.4 °C 14.7 °C 1017.8 hPa NE 10.1 km/h 16.7 km/h 54.7% 0.0 mm
16:39 24.5 °C 15.1 °C 1017.8 hPa NE 10.3 km/h 19 km/h 55.7% 0.0 mm
16:44 24.5 °C 15.3 °C 1017.8 hPa NNE 9.2 km/h 19.3 km/h 56.5% 0.0 mm
16:49 24.5 °C 15.2 °C 1017.8 hPa Este 8.7 km/h 14.8 km/h 56.2% 0.0 mm
16:54 24.5 °C 15 °C 1017.8 hPa Este 7.4 km/h 14.5 km/h 55.4% 0.0 mm
16:59 24.5 °C 14.9 °C 1017.7 hPa Este 6.9 km/h 13 km/h 55.4% 0.0 mm
17:04 24.4 °C 15 °C 1017.7 hPa Este 6.9 km/h 12.9 km/h 55.9% 0.0 mm
17:09 24.3 °C 15.2 °C 1017.7 hPa ESE 6.9 km/h 11.3 km/h 57% 0.0 mm
17:14 24.2 °C 15 °C 1017.5 hPa ESE 6.6 km/h 13 km/h 56.5% 0.0 mm
17:19 24.2 °C 15.1 °C 1017.5 hPa ESE 6.5 km/h 21.7 km/h 57% 0.0 mm
17:24 24 °C 15.4 °C 1017.6 hPa ESE 8.7 km/h 22.5 km/h 58.7% 0.0 mm
17:29 23.7 °C 15.5 °C 1017.6 hPa ESE 9.5 km/h 22.5 km/h 60.2% 0.0 mm
17:34 23.6 °C 15.5 °C 1017.6 hPa ESE 12.6 km/h 22.5 km/h 60.5% 0.0 mm
17:39 23.5 °C 15.5 °C 1017.6 hPa Este 13.7 km/h 22.5 km/h 60.9% 0.0 mm
17:44 23.4 °C 15.4 °C 1017.6 hPa ESE 12.6 km/h 20.9 km/h 61% 0.0 mm
17:49 23.3 °C 15.3 °C 1017.6 hPa ESE 12.2 km/h 26.2 km/h 61% 0.0 mm
17:54 23.1 °C 15.3 °C 1017.6 hPa ESE 13.3 km/h 25.9 km/h 61.5% 0.0 mm
17:59 22.9 °C 15.2 °C 1017.6 hPa ESE 13.7 km/h 24.1 km/h 62% 0.0 mm
18:04 22.8 °C 15.2 °C 1017.6 hPa ESE 14.6 km/h 25.9 km/h 62.6% 0.0 mm
18:09 22.7 °C 15.3 °C 1017.8 hPa ESE 14.8 km/h 25.7 km/h 63% 0.0 mm
18:14 22.6 °C 15.2 °C 1017.8 hPa ESE 14.2 km/h 20.9 km/h 63% 0.0 mm
18:19 22.6 °C 15.3 °C 1017.8 hPa ESE 14 km/h 22 km/h 63.8% 0.0 mm
18:24 22.4 °C 15.3 °C 1017.9 hPa ESE 13.3 km/h 22.5 km/h 64% 0.0 mm
18:29 22.3 °C 15.2 °C 1017.9 hPa ESE 13 km/h 20.9 km/h 64.3% 0.0 mm
18:34 22.2 °C 15.4 °C 1017.9 hPa ESE 12.4 km/h 20.4 km/h 65.4% 0.0 mm
18:39 22.1 °C 15.6 °C 1018.0 hPa ESE 12.2 km/h 20.9 km/h 66.5% 0.0 mm
18:44 21.9 °C 15.6 °C 1018.0 hPa ESE 12 km/h 16.7 km/h 67.5% 0.0 mm
18:49 21.8 °C 15.7 °C 1018.0 hPa ESE 11.9 km/h 18.5 km/h 68.2% 0.0 mm
18:54 21.8 °C 15.8 °C 1018.1 hPa Este 11.9 km/h 19.3 km/h 69% 0.0 mm
18:59 21.7 °C 15.9 °C 1018.1 hPa Este 11.9 km/h 16.1 km/h 69.9% 0.0 mm
19:04 21.5 °C 15.8 °C 1018.1 hPa ENE 9.2 km/h 14.5 km/h 70.3% 0.0 mm
19:09 21.3 °C 15.9 °C 1018.3 hPa NE 8.4 km/h 14.5 km/h 71% 0.0 mm
19:14 21.2 °C 15.8 °C 1018.3 hPa ENE 7.3 km/h 13.7 km/h 71% 0.0 mm
19:19 21.1 °C 15.8 °C 1018.3 hPa NE 6.9 km/h 14.8 km/h 71.9% 0.0 mm
19:24 20.9 °C 15.7 °C 1018.4 hPa NE 7.4 km/h 14.5 km/h 72.1% 0.0 mm
19:29 20.8 °C 15.8 °C 1018.4 hPa NE 7.6 km/h 11.3 km/h 73% 0.0 mm
19:34 20.7 °C 15.8 °C 1018.4 hPa NE 6.3 km/h 10 km/h 73.8% 0.0 mm
19:39 20.4 °C 15.7 °C 1018.5 hPa NE 5.8 km/h 11.1 km/h 74.5% 0.0 mm
19:44 20.2 °C 15.7 °C 1018.5 hPa NE 6.3 km/h 13.7 km/h 75.4% 0.0 mm
19:49 19.9 °C 15.6 °C 1018.5 hPa NE 6.5 km/h 15.6 km/h 76.2% 0.0 mm
19:54 19.7 °C 15.6 °C 1018.8 hPa NNE 8.7 km/h 16.1 km/h 77% 0.0 mm
19:59 19.6 °C 15.6 °C 1018.8 hPa NE 9.5 km/h 14.8 km/h 77.8% 0.0 mm
20:04 19.4 °C 15.5 °C 1018.8 hPa NE 9.9 km/h 15.6 km/h 78% 0.0 mm
20:09 19.4 °C 15.6 °C 1018.9 hPa NNE 10 km/h 16.7 km/h 78.8% 0.0 mm
20:14 19.3 °C 15.6 °C 1018.9 hPa NNE 9.6 km/h 16.1 km/h 79% 0.0 mm
20:19 19.2 °C 15.6 °C 1018.9 hPa NE 9.5 km/h 14.5 km/h 79.7% 0.0 mm
20:24 19.1 °C 15.6 °C 1019.2 hPa NE 8.7 km/h 14.8 km/h 80% 0.0 mm
20:29 19 °C 15.6 °C 1019.2 hPa NE 8.4 km/h 14.5 km/h 80.8% 0.0 mm
20:34 18.9 °C 15.5 °C 1019.2 hPa NE 7.8 km/h 14.5 km/h 81% 0.0 mm
20:39 18.8 °C 15.6 °C 1019.4 hPa NE 7.6 km/h 13 km/h 81.9% 0.0 mm
20:44 18.7 °C 15.5 °C 1019.4 hPa NE 8.1 km/h 13.7 km/h 82% 0.0 mm
20:49 18.5 °C 15.5 °C 1019.4 hPa NE 8.4 km/h 14.5 km/h 82.8% 0.0 mm
20:54 18.4 °C 15.4 °C 1019.4 hPa NNE 9.2 km/h 16.7 km/h 83% 0.0 mm
20:59 18.3 °C 15.5 °C 1019.4 hPa NE 9.5 km/h 16.1 km/h 83.4% 0.0 mm
21:04 18.2 °C 15.5 °C 1019.4 hPa NNE 7.5 km/h 11.9 km/h 84% 0.0 mm
21:09 18.2 °C 15.4 °C 1019.6 hPa NNE 6.9 km/h 13 km/h 84.1% 0.0 mm
21:14 18 °C 15.5 °C 1019.6 hPa NNE 8 km/h 13.7 km/h 85% 0.0 mm
21:19 17.9 °C 15.3 °C 1019.6 hPa NNE 8.4 km/h 14.5 km/h 85.1% 0.0 mm
21:24 17.8 °C 15.4 °C 1019.6 hPa NNE 8.6 km/h 14.5 km/h 86% 0.0 mm
21:29 17.8 °C 15.4 °C 1019.6 hPa NE 8.7 km/h 13.7 km/h 86% 0.0 mm
21:34 17.7 °C 15.4 °C 1019.6 hPa NE 8.5 km/h 14.5 km/h 86.5% 0.0 mm
21:39 17.7 °C 15.5 °C 1019.8 hPa NE 8.4 km/h 12.9 km/h 87% 0.0 mm
21:44 17.7 °C 15.5 °C 1019.8 hPa NE 6.9 km/h 11.9 km/h 87% 0.0 mm
21:49 17.7 °C 15.5 °C 1019.8 hPa NE 6.5 km/h 11.3 km/h 87% 0.0 mm
21:54 17.7 °C 15.5 °C 1020.0 hPa NE 7.3 km/h 11.3 km/h 87% 0.0 mm
21:59 17.7 °C 15.5 °C 1020.0 hPa NE 7.6 km/h 9.7 km/h 87% 0.0 mm
22:04 17.7 °C 15.5 °C 1020.0 hPa NE 6.7 km/h 9.7 km/h 87% 0.0 mm
22:09 17.7 °C 15.5 °C 1020.1 hPa NE 6.5 km/h 9.5 km/h 87% 0.0 mm
22:14 17.6 °C 15.4 °C 1020.1 hPa NE 5.4 km/h 9.7 km/h 87% 0.0 mm
22:19 17.5 °C 15.4 °C 1020.1 hPa NE 5 km/h 10 km/h 87.4% 0.0 mm
22:24 17.4 °C 15.4 °C 1020.3 hPa NE 5.6 km/h 9.7 km/h 88% 0.0 mm
22:29 17.3 °C 15.3 °C 1020.3 hPa NE 5.8 km/h 8.4 km/h 88% 0.0 mm
22:34 17.3 °C 15.2 °C 1020.3 hPa NNE 4.3 km/h 8 km/h 88% 0.0 mm
22:39 17.2 °C 15.2 °C 1020.3 hPa NNE 3.9 km/h 6.4 km/h 88% 0.0 mm
22:44 17.2 °C 15.3 °C 1020.2 hPa NNE 3.1 km/h 8 km/h 88.8% 0.0 mm
22:49 17.1 °C 15.3 °C 1020.2 hPa NNE 2.9 km/h 4.8 km/h 89% 0.0 mm
22:54 17.1 °C 15.3 °C 1020.3 hPa NNE 0.8 km/h   89% 0.0 mm
22:59 17.1 °C 15.3 °C 1020.3 hPa Calm   3.9 km/h 89% 0.0 mm
23:04 17.1 °C 15.2 °C 1020.3 hPa NNE 1.8 km/h 5.8 km/h 89% 0.0 mm
23:09 17 °C 15.1 °C 1020.3 hPa NNE 2.2 km/h 6.4 km/h 89% 0.0 mm
23:14 16.9 °C 15 °C 1020.2 hPa NNE 0.6 km/h 7.4 km/h 88.5% 0.0 mm
23:19 16.8 °C 15 °C 1020.2 hPa Calm   8 km/h 89% 0.0 mm
23:24 16.8 °C 15 °C 1020.2 hPa Este 2.4 km/h 6.4 km/h 89% 0.0 mm
23:29 16.7 °C 14.9 °C 1020.2 hPa Este 3.2 km/h 5 km/h 89% 0.0 mm
23:34 16.7 °C 14.9 °C 1020.2 hPa Este 3 km/h 5.6 km/h 89% 0.0 mm
23:39 16.7 °C 14.9 °C 1020.2 hPa Este 2.9 km/h 5.6 km/h 89% 0.0 mm
23:44 16.6 °C 14.8 °C 1020.2 hPa Este 2.9 km/h 5.6 km/h 89% 0.0 mm
23:49 16.6 °C 14.8 °C 1020.2 hPa ESE 2.9 km/h 3.2 km/h 89% 0.0 mm
23:54 16.6 °C 14.8 °C 1020.3 hPa ESE 0.8 km/h 1.6 km/h 89% 0.0 mm
23:59 16.6 °C 14.9 °C 1020.3 hPa Calm   5.6 km/h 89.9% 0.0 mm
Murcia-Puente Tocinos, España
Compliments of Weather Underground - 3 mb

La estación de MeteoMurcia.com, publica sus datos en los siguientes proyectos:

Weather Underground PWS IMURCIAP2 Meteoclimatic www.awekas.at

W3Counter
Web Analytics